Regional Weather Roundup
Issued by NWS

Home | Current Version | Previous Version | Text Only | Print | Product List | Glossary Off
Versions: 1 2 3 4 5 6 7 8 9 10 11 12 13 14 15 16 17 18 19 20 21 22 23 24 25 26 27 28 29 30 31 32 33 34 35 36 37 38 39 40 41 42 43 44 45 46 47 48 49 50

000
ASUS43 KTOP 100108
RWRKS

WEATHER ROUNDUP FOR KANSAS
NATIONAL WEATHER SERVICE GOODLAND KS
700 PM CST TUE FEB 09 2016

NOTE:  "FAIR" INDICATES FEW OR NO CLOUDS BELOW 12,000 FEET WITH NO
SIGNIFICANT WEATHER AND/OR OBSTRUCTIONS TO VISIBILITY.

KSZ001>006-013>018-027>032-041>047-100200-
NORTHWEST KANSAS

CITY           SKY/WX    TMP DP  RH WIND       PRES   REMARKS
GOODLAND       CLEAR     38  30  73 W9        30.22S
HAYS           CLOUDY    34  16  47 E6        30.27F
HILL CITY      CLOUDY    33  24  69 SE6       30.25F
RUSSELL        CLOUDY    30  19  63 E8        30.28F
$$

KSZ061>065-074>080-084>089-100200-
SOUTHWEST KANSAS

CITY           SKY/WX    TMP DP  RH WIND       PRES   REMARKS
DODGE CITY     CLOUDY    36  20  52 E6        30.26R
ELKHART          N/A     50  26  39 NW6         N/A
GARDEN CITY    CLEAR     39  27  62 N3        30.24S
GREAT BEND     CLOUDY    34  16  47 E8        30.30S
LIBERAL        CLEAR     41  19  42 NW6       30.27R
PRATT          PTCLDY    30  18  60 NE5       30.29S
$$

KSZ066>073-081>083-090>101-100200-
SOUTHEAST KANSAS

CITY           SKY/WX    TMP DP  RH WIND       PRES   REMARKS
CHANUTE        CLEAR     28   8  43 N10       30.30R WCI  19
COFFEYVILLE    CLEAR     30   9  41 N8        30.30R
HUTCHINSON     CLOUDY    33  14  45 N8        30.32R
MEDICINE LODGE   N/A     37  19  48 NE7       30.29R
NEWTON         CLEAR     28  10  47 N10       30.32S WCI  19
PARSONS        CLEAR     30   9  41 N13       30.30R WCI  20
WICHITA INTL   PTCLDY    34  14  43 N13       30.32R WCI  25
WICHITA JABRA  CLEAR     30  14  51 NW14      30.31R WCI  19
WICHITA MCCONL CLEAR     32  13  47 N15       30.31R WCI  21
WINFIELD       CLEAR     32  17  54 N9        30.32R
$$

KSZ007>012-019>026-033>040-048>060-102>105-100200-
NORTHEAST KANSAS

CITY           SKY/WX    TMP DP  RH WIND       PRES   REMARKS
CONCORDIA      CLOUDY    26  11  52 W3        30.30S
EMPORIA        CLEAR     24   7  48 NW7       30.30R
LAWRENCE       CLEAR     22   6  50 NW10      30.29R WCI  11
MANHATTAN      CLEAR     24   9  52 CALM      30.32S
MARYSVILLE     CLOUDY    27  12  54 NW5       30.29S
OLATHE IND     CLEAR     24   5  44 NW13      30.27R WCI  12
OLATHE EXE     CLEAR     23   4  44 NW10      30.25R WCI  12
SALINA         MOCLDY    29  13  51 NW6       30.33S
TOPEKA BILLARD PTCLDY    26   7  44 NW8       30.30R
TOPEKA FORBES  MOCLDY    28   7  41 NW14      30.29R WCI  17
$$



USA.gov is the U.S. government's official web portal to all federal, state and local government web resources and services.